"Pseudo-MPEC" for CEGWR82

Created 2026 Apr 10 5:35:10 UT using Find_Orb

Click here for an explanation of pseudo-MPECs

 
 Astrometry: 
     CEGWR82*1C2026 04 08.36929014 17 17.200-05 41 51.50   ~489Z       VNEOCPG96
     CEGWR82 1C2026 04 08.37451314 17 35.450-05 43 26.70   ~489Z       VNEOCPG96
     CEGWR82 1C2026 04 08.37973214 17 53.264-05 44 59.75   ~489Zx19.42GVNEOCPG96
     CEGWR82 1C2026 04 08.38493914 18 11.437-05 46 34.43   ~489Z 20.27GVNEOCPG96
     CEGWR82 1C2026 04 08.40493714 19 21.162-05 52 36.12   ~48A5 19.38GVNEOCPI52
     CEGWR82 1C2026 04 08.40552914 19 23.239-05 52 45.77   ~48A5 19.29GVNEOCPI52
     CEGWR82 1C2026 04 08.40612314 19 25.349-05 52 56.75   ~48A5 18.77GVNEOCPI52
     CEGWR82 1C2026 04 08.40670414 19 27.325-05 53 07.55   ~48A5 19.86GVNEOCPI52
     CEGWR82 1C2026 04 08.45949714 22 33.208-06 08 53.88   ~48BK 19.00GVNEOCPI52
     CEGWR82 1C2026 04 08.46008014 22 35.249-06 09 04.46   ~48BK 19.36GVNEOCPI52
     CEGWR82 1C2026 04 08.46230214 22 43.201-06 09 43.81   ~48BK 19.00GVNEOCPI52
     CEGWR82 1C2026 04 08.46289314 22 45.286-06 09 54.68   ~48BK 19.03GVNEOCPI52
     CEGWR82 KB2026 04 08.64949214 35 16.426-07 06 56.27   ~48Go 18.8 GWNEOCP900
     CEGWR82 KB2026 04 08.65841114 35 48.422-07 09 36.94   ~48Go 19.5 GWNEOCP900
     CEGWR82 KB2026 04 08.66733014 36 20.292-07 12 19.01   ~48Go 19.1 GWNEOCP900
     CEGWR82 KB2026 04 08.91196314 52 33.46 -08 26 17.1    ~48MK 19.4 GVNEOCPL01
     CEGWR82 KB2026 04 08.91560414 52 47.07 -08 27 21.9    ~48MK 19.8 GVNEOCPL01
     CEGWR82 KB2026 04 08.91915914 53 00.30 -08 28 25.7    ~48MK 19.4 GVNEOCPL01
     CEGWR82 KB2026 04 08.95499914 55 21.68 -08 38 45.3    ~48NZ 19.1 GVNEOCPI93
     CEGWR82 KB2026 04 08.95902114 55 36.70 -08 39 57.6    ~48NZ 19.4 GVNEOCPI93
     CEGWR82 KB2026 04 08.96301614 55 51.59 -08 41 08.8    ~48NZ 19.8 GVNEOCPI93
     CEGWR82 KC2026 04 08.96879014 56 14.00 -08 42 42.6    ~4905 19.3 GXNEOCP958
     CEGWR82 KC2026 04 08.97423014 56 34.21 -08 44 19.6    ~4905 19.6 GXNEOCP958
     CEGWR82 KC2026 04 08.97967414 56 54.48 -08 45 56.8    ~4905 19.0 GXNEOCP958
     CEGWR82 1C2026 04 08.98096114 56 48.060-08 47 14.27   ~48No 19.5 GWNEOCP246
     CEGWR82 1C2026 04 08.98128114 56 49.259-08 47 20.12   ~48No 19.5 GWNEOCP246
     CEGWR82 1C2026 04 08.98160014 56 50.530-08 47 25.74   ~48No 19.4 GWNEOCP246
     CEGWR82 1C2026 04 08.98287914 56 55.280-08 47 48.25   ~48No 19.4 GWNEOCP246
     CEGWR82 1C2026 04 08.98319914 56 56.333-08 47 53.74   ~48No 19.3 GWNEOCP246
     CEGWR82 KB2026 04 09.01978 14 59 05.47 -08 58 17.1    ~4915 19.4 GXNEOCPL04
     CEGWR82 KB2026 04 09.02829 14 59 36.82 -09 00 43.6    ~4915 19.5 GXNEOCPL04
     CEGWR82 0C2026 04 09.07200815 02 34.711-09 13 53.87   ~492K 19.4 GWNEOCPJ95
     CEGWR82 0C2026 04 09.07953715 03 02.659-09 16 03.50   ~492K 19.6 GWNEOCPJ95
     CEGWR82 |C2026 04 09.25604015 14 42.260-09 48 32.50   ~496o 19.5 GVNEOCP807
     CEGWR82 |C2026 04 09.25720815 14 46.470-09 48 51.90   ~496o 19.4 GVNEOCP807
     CEGWR82 |C2026 04 09.25836015 14 50.730-09 49 11.80   ~496o 19.4 GVNEOCP807
     CEGWR82 KC2026 04 09.31361415 18 24.48 -10 19 47.4    ~4985 19.8 GVNEOCPH21
     CEGWR82 KC2026 04 09.31467615 18 28.36 -10 20 04.9    ~4985 19.8 GVNEOCPH21
     CEGWR82 KC2026 04 09.31573915 18 32.23 -10 20 22.4    ~4985 19.8 GVNEOCPH21

Station data:
(246) Klet Observatory-KLENOT  (N48.863991 E14.284760)  Czech Republic.
   Observer J. Ticha. Measurer M. Tichy. 1.06-m f/2.7 reflector + 2048x2048
   CCD.
(807) Cerro Tololo Observatory, La Serena  (S30.169133 W70.805900)  Chile.
   Observer R. Holmes. 0.61-m f/6.5 astrograph + CCD.
(900) Moriyama  (N35.049753 E135.989940)  Japan.  Observer Y. Ikari. 0.26-m
   f/7.0 reflector + CCD.
(958) Observatoire de Dax  (N43.693381 W1.030530)  France.  Observer P.
   Dupouy. 0.32-m Schmidt-Cassegrain.
(G96) Mt. Lemmon Survey  (N32.442729 W110.788720)  US/Arizona.  Observer E.
   J. Christensen. Measurers T. Beuden, V. F. Carvajal, D. Fay, J. B.
   Fazekas, D. C. Fuls, A. R. Gibbs, A. D. Grauer, H. Gröller, J. K. Hogan,
   R. A. Kowalski, S. M. Larson, G. J. Leonard, D. Rankin, R. L. Seaman, F.
   C. Shelly, K. W. Wierzchoś. 1.5-m reflector + 10K CCD.
(H21) Astronomical Research Observatory, Westfield  (N39.483054 W87.968270)
   US/Illinois.  Observer R. Holmes. Measurers S. Foglia, L. Buzzi, T.
   Linder, R. Holmes. 0.40-m f/5.32 astrograph + CCD.
(I52) Steward Observatory, Mt. Lemmon Station  (N32.442570 W110.788920)
   US/Arizona. Measurers T. Beuden, V. F. Carvajal, D. Fay, J. B. Fazekas, D.
   C. Fuls, A. R. Gibbs, A. D. Grauer, H. Gröller, J. K. Hogan, R. A.
   Kowalski, S. M. Larson, G. J. Leonard, D. Rankin, R. L. Seaman, F. C.
   Shelly, K. W. Wierzchoś. 1.0-m prime focus + CCD.
(I93) St Pardon de Conques  (N44.558670 W0.202960)  France.  Observers F.
   Losse, W. D'Anna. Measurer F. Losse. 0.40-m f/3.7 reflector + CCD.
(J95) Great Shefford  (N51.474969 W1.447003)  UK/England.  Observer P.
   Birtwhistle. 0.41-m f/6.3 Schmidt-Cassegrain + CCD.
(L01) Višnjan Observatory, Tičan  (N45.290897 E13.749300)  Croatia.
   Observers K. Korlević, L. Poropat. Measurer K. Korlevic. 1.0-m f/2.9
   reflector + CCD.
(L04) ROASTERR-1 Observatory, Cluj-Napoca  (N46.820952 E23.596400)  Romania.
   Observer L. Hudin. 0.1-m f/9 refractor + CCD.

Orbital elements:  CEGWR82
   Perihelion 2026 Apr 17.831505 +/- 0.00297 TT = 19:57:21.9 (JD 2461148.331505)
Epoch 2026 Apr  9.0 TT = JDT 2461139.5   Earth MOID: 0.0023   Ma: 0.0390
M 355.635373408 +/- 0.0021          (J2000 ecliptic)             AutoNEOCP
n   0.494210987 +/- 0.00015         Peri.   86.962995 +/- 0.08
a   1.584386444 +/- 0.000321        Node   122.122942 +/- 0.08
e   0.36468738 +/- 0.000128         Incl.    0.084685 +/- 0.000043
P   1.994/728.420d         H 28.43  G  0.15   U  6.8
q 1.006580689 +/- 3.14e-6    Q 2.162192198 +/- 0.00064
38 of 39 observations 2026 Apr. 8-9 (22.7 hr); mean residual 0".57
Residuals in arcseconds: 
260408 G96  .65-  .49+    260408 900  1.5+  .08+    260408 246  .05+  .01+    
260408 G96  1.5+  .22-    260408 900  .74+  .67-    260408 246  .28+  .01-    
260408 G96( 2.9-  1.1+)   260408 L01  .36-  .26-    260408 246  1.7-  .13+    
260408 G96  1.6-  .48+    260408 L01  .11-  .27+    260409 L04  .40-  .04+    
260408 I52  .37-  .57-    260408 L01  .56-  .21+    260409 L04  .36-  .48+    
260408 I52  .22-  .44+    260408 I93  .09+  .35+    260409 J95  .32-  .14+    
260408 I52  .32+  .16+    260408 I93  .16+  .16-    260409 J95  .29+  .14-    
260408 I52  .46-  .18-    260408 I93  .02+  .13-    260409 807  .42-  .11+    
260408 I52  .14+  .12+    260408 958  .95+  .09+    260409 807  .73-  .25+    
260408 I52  .31-  .05-    260408 958  .55+  .12-    260409 807  .56+  .38-    
260408 I52  .49+  .27+    260408 958  1.2+  .60-    260409 H21  .41+  .06+    
260408 I52  .23+  .05-    260408 246  1.5-  .23+    260409 H21  .52+  .01+    
260408 900  .40+  .89-    260408 246  1.3-  .01+    260409 H21  .43+  .04-    

Ephemerides (geocentric):
Date (UTC) HH   RA             Dec           delta  r     elong  mag " sig PA
---- --------  ------------   ------------  ------ ------ -----  --- --------
2026 04 10 06  16 17 07.888   -13 49 46.13  .01113 1.0096 134.7 20.4 .524  90
2026 04 10 07  16 19 35.474   -13 57 48.80  .01118 1.0096 134.1 20.4 .558  91
2026 04 10 08  16 22 02.015   -14 05 42.01  .01122 1.0096 133.6 20.5 .592  92
2026 04 10 09  16 24 27.488   -14 13 25.79  .01127 1.0095 133.0 20.5 .627  92
2026 04 10 10  16 26 51.874   -14 21 00.17  .01132 1.0095 132.5 20.5 .662  93
2026 04 10 11  16 29 15.152   -14 28 25.19  .01137 1.0095 131.9 20.5 .698  93
2026 04 10 12  16 31 37.306   -14 35 40.90  .01142 1.0094 131.4 20.6 .735  94
2026 04 10 13  16 33 58.317   -14 42 47.36  .01147 1.0094 130.9 20.6 .772  94
2026 04 10 14  16 36 18.172   -14 49 44.62  .01153 1.0094 130.3 20.6 .809  95
2026 04 10 15  16 38 36.855   -14 56 32.76  .01158 1.0093 129.8 20.6 .847  95
2026 04 10 16  16 40 54.353   -15 03 11.85  .01164 1.0093 129.3 20.6 .885  95
2026 04 10 17  16 43 10.655   -15 09 41.98  .01170 1.0093 128.8 20.7 .923  95
2026 04 10 18  16 45 25.750   -15 16 03.24  .01175 1.0092 128.3 20.7 .962  95
2026 04 10 19  16 47 39.627   -15 22 15.72  .01181 1.0092 127.8 20.7 1.00  96
2026 04 10 20  16 49 52.279   -15 28 19.52  .01187 1.0092 127.3 20.7 1.04  96
2026 04 10 21  16 52 03.698   -15 34 14.75  .01193 1.0091 126.8 20.8 1.08  96
2026 04 10 22  16 54 13.878   -15 40 01.51  .01200 1.0091 126.3 20.8 1.12  96
2026 04 10 23  16 56 22.812   -15 45 39.92  .01206 1.0091 125.8 20.8 1.16  96
2026 04 11 00  16 58 30.497   -15 51 10.09  .01212 1.0090 125.3 20.8 1.20  96
2026 04 11 01  17 00 36.929   -15 56 32.15  .01219 1.0090 124.9 20.9 1.24  96
2026 04 11 02  17 02 42.105   -16 01 46.21  .01225 1.0090 124.4 20.9 1.28  96
2026 04 11 03  17 04 46.023   -16 06 52.40  .01232 1.0090 124.0 20.9 1.32  96
2026 04 11 04  17 06 48.684   -16 11 50.84  .01239 1.0089 123.5 20.9 1.36  96
2026 04 11 05  17 08 50.085   -16 16 41.67  .01246 1.0089 123.1 21.0 1.40  96
2026 04 11 06  17 10 50.229   -16 21 25.01  .01253 1.0089 122.6 21.0 1.44  96
2026 04 11 07  17 12 49.117   -16 26 01.00  .01260 1.0088 122.2 21.0 1.48  96
2026 04 11 08  17 14 46.751   -16 30 29.77  .01267 1.0088 121.8 21.0 1.51  96
2026 04 11 09  17 16 43.133   -16 34 51.45  .01274 1.0088 121.3 21.1 1.55  96
2026 04 11 10  17 18 38.267   -16 39 06.17  .01282 1.0087 120.9 21.1 1.59  96
2026 04 11 11  17 20 32.158   -16 43 14.07  .01289 1.0087 120.5 21.1 1.63  96
2026 04 11 12  17 22 24.810   -16 47 15.28  .01296 1.0087 120.1 21.1 1.67  96
2026 04 11 13  17 24 16.228   -16 51 09.93  .01304 1.0087 119.7 21.2 1.71  96
2026 04 11 14  17 26 06.418   -16 54 58.17  .01312 1.0086 119.3 21.2 1.75  96
2026 04 11 15  17 27 55.386   -16 58 40.12  .01319 1.0086 118.9 21.2 1.79  96
2026 04 11 16  17 29 43.140   -17 02 15.91  .01327 1.0086 118.5 21.2 1.82  96
2026 04 11 17  17 31 29.686   -17 05 45.67  .01335 1.0086 118.1 21.3 1.86  96
2026 04 11 18  17 33 15.032   -17 09 09.55  .01343 1.0085 117.7 21.3 1.90  96
2026 04 11 19  17 34 59.186   -17 12 27.66  .01351 1.0085 117.4 21.3 1.94  96
2026 04 11 20  17 36 42.157   -17 15 40.13  .01359 1.0085 117.0 21.3 1.97  96
2026 04 11 21  17 38 23.953   -17 18 47.09  .01367 1.0084 116.6 21.4 2.01  96
2026 04 11 22  17 40 04.583   -17 21 48.67  .01375 1.0084 116.3 21.4 2.05  96
2026 04 11 23  17 41 44.057   -17 24 44.99  .01384 1.0084 115.9 21.4 2.08  96
2026 04 12 00  17 43 22.383   -17 27 36.17  .01392 1.0084 115.6 21.4 2.12  96
2026 04 12 01  17 44 59.573   -17 30 22.34  .01400 1.0083 115.2 21.5 2.15  96
2026 04 12 02  17 46 35.636   -17 33 03.61  .01409 1.0083 114.9 21.5 2.19  96
2026 04 12 03  17 48 10.583   -17 35 40.10  .01417 1.0083 114.6 21.5 2.23  95
2026 04 12 04  17 49 44.423   -17 38 11.92  .01426 1.0083 114.2 21.5 2.26  95
2026 04 12 05  17 51 17.168   -17 40 39.19  .01435 1.0082 113.9 21.5 2.29  95